Wind_Speed
42 42 41 41 43 45 49 51 51 49 49 46 42 43 43 42 42 42 42 42 41 41 43 43 43 43 42 41 41 40 40 39 39 38 38 37 37 36 36 36 35 35 35 35
42 43 44 43 44 44 46 46 48 49 48 46 44 44 43 43 40 40 40 41 41 41 42 42 43 43 42 41 41 40 40 39 38 38 38 37 36 36 36 36 35 35 35 35
42 43 46 44 42 43 44 45 46 49 47 47 47 46 44 42 42 41 41 41 40 40 41 42 42 43 42 42 41 40 39 39 38 38 37 36 36 36 36 36 36 36 36 36
42 42 45 42 39 41 44 45 46 47 47 48 47 45 43 42 42 41 40 41 41 41 41 42 42 42 41 40 40 39 39 38 38 37 36 36 36 36 36 36 35 36 36 36
41 42 42 42 40 38 41 44 46 47 48 48 48 47 44 43 42 40 40 40 42 42 41 41 41 41 41 40 39 39 39 38 37 37 36 36 36 36 36 36 36 36 36 36
39 41 41 39 39 38 40 42 44 47 49 48 48 48 44 43 43 42 42 42 42 42 42 41 41 41 40 40 39 38 38 38 37 36 36 36 35 35 35 35 36 36 36 36
36 37 38 37 37 38 39 39 41 45 47 47 48 47 45 44 43 44 44 44 43 42 42 41 41 41 40 39 38 38 37 37 37 37 36 36 35 35 35 35 35 36 36 36
35 36 35 35 35 37 38 38 39 43 45 46 46 46 46 45 43 43 44 44 44 43 43 42 41 41 40 39 38 38 38 37 37 36 36 36 35 35 35 35 35 36 36 36
33 34 33 35 36 37 37 38 38 41 44 46 46 44 44 45 44 42 42 43 43 44 43 43 41 39 39 39 38 38 38 37 37 37 36 36 35 35 35 35 35 35 36 36
34 33 33 35 37 37 37 37 38 40 42 45 46 46 44 43 43 43 43 43 43 44 44 43 42 40 39 38 38 38 38 37 37 37 36 36 35 35 35 35 35 35 35 35
35 35 36 36 37 37 37 38 38 39 41 43 45 45 44 43 42 42 43 43 43 43 43 43 43 41 39 39 38 38 38 37 36 36 36 36 35 35 35 34 34 35 35 35
35 36 38 38 38 38 39 38 38 39 40 41 43 43 43 42 42 42 43 43 41 42 42 42 42 41 40 39 39 38 37 36 35 35 35 35 35 35 34 34 34 34 35 35
35 37 39 39 38 39 39 40 40 39 40 40 41 42 41 41 40 40 42 42 41 41 41 41 41 41 40 39 39 39 37 37 36 35 35 35 35 35 34 34 34 34 35 36
35 37 39 39 40 41 41 40 41 40 39 40 40 40 40 39 39 39 40 41 42 42 43 42 41 40 39 39 39 39 38 37 37 36 35 34 34 34 34 34 34 34 35 36
34 37 38 39 40 41 41 40 41 41 41 41 41 41 40 40 40 40 41 41 41 41 41 41 41 40 39 38 38 38 37 37 36 35 35 35 34 34 34 34 34 35 36 36
34 35 37 39 40 41 41 40 40 40 41 42 42 41 40 40 41 41 40 40 40 39 39 39 39 39 38 38 37 37 36 36 35 34 34 34 35 35 34 34 35 35 36 36
36 36 36 38 39 40 41 40 38 38 39 41 41 41 40 38 39 40 41 40 39 39 39 39 38 37 37 37 37 36 36 35 35 34 34 35 35 34 33 34 35 35 36 37
35 36 36 37 38 39 40 40 39 37 38 40 40 40 39 38 37 37 39 39 39 38 38 37 37 37 37 37 36 35 34 34 34 33 34 34 33 33 34 34 35 36 36 36
33 33 33 34 36 36 37 37 37 37 37 37 38 38 37 36 35 35 37 37 37 37 36 36 36 36 36 36 35 35 34 33 33 33 33 33 33 33 34 34 35 36 36 37
29 29 30 31 33 35 35 35 35 36 37 36 36 36 35 34 33 34 35 36 35 35 35 35 35 34 34 34 33 33 33 32 32 32 33 33 33 33 34 34 35 36 36 37
27 27 28 29 31 32 32 33 34 35 35 35 35 35 34 33 33 33 34 36 35 35 35 34 33 32 32 32 32 32 32 31 31 32 32 32 32 33 34 34 35 36 36 36
24 25 25 26 28 30 31 32 33 33 33 34 35 35 34 34 33 33 33 34 34 34 34 33 33 32 32 32 31 30 30 31 31 32 32 32 32 33 33 34 35 35 36 36
22 23 23 24 27 29 31 31 32 32 33 33 34 33 33 32 32 32 32 32 32 32 32 31 31 31 31 30 29 30 31 32 32 31 31 32 32 33 34 34 35 35 36 37
21 23 23 24 26 28 29 30 31 32 32 33 33 32 32 32 32 33 33 33 32 31 31 31 31 30 29 29 30 30 31 31 31 31 31 32 32 33 33 34 34 35 36 37
19 20 22 23 25 26 28 30 30 31 31 32 32 31 31 32 32 32 32 32 32 31 31 31 31 31 31 30 30 30 31 31 31 31 31 31 31 31 32 33 34 35 37 38
18 19 20 22 23 25 27 29 30 30 30 30 31 31 31 32 32 32 32 32 32 32 31 30 30 30 29 30 30 31 31 30 30 30 30 30 30 31 32 33 35 36 37 39
19 20 20 21 22 24 26 28 29 29 29 28 29 30 30 31 31 31 31 31 31 31 30 30 30 29 30 30 30 30 30 30 30 30 30 31 32 33 34 35 36 37 38 40
Wind_Direction
230 227 225 222 221 223 227 228 231 231 232 230 234 236 238 238 238 237 236 236 237 239 240 240 241 242 243 245 246 248 251 253 256 258 261 264 266 268 271 274 277 280 283 286
232 229 228 227 222 224 226 227 228 229 229 227 231 234 236 237 237 235 235 235 236 238 238 239 240 241 242 243 245 248 250 252 255 258 261 263 266 268 271 274 277 279 282 285
234 232 232 230 227 228 229 228 229 229 227 227 230 232 234 236 237 234 233 233 234 236 237 237 239 240 241 243 244 247 249 252 255 258 260 263 266 269 271 274 276 279 282 285
237 235 237 231 231 230 229 229 229 229 227 228 230 231 232 232 233 233 232 231 232 234 236 237 238 239 239 241 243 246 249 252 254 257 260 263 266 269 271 274 277 280 282 285
237 237 236 232 231 230 230 229 228 228 228 228 229 229 229 230 230 230 229 229 230 232 234 236 237 237 238 241 243 246 249 252 255 257 260 263 266 268 271 274 277 280 283 286
237 239 238 233 234 233 232 230 227 227 226 227 229 230 230 230 228 228 229 228 228 230 232 233 235 236 238 240 243 246 249 252 255 258 261 263 266 268 271 274 277 280 283 286
235 238 237 231 232 231 232 229 227 227 226 227 229 230 231 230 228 228 229 229 229 229 230 232 234 236 237 240 243 247 250 252 255 259 261 264 266 268 271 274 277 279 282 285
233 235 234 231 231 231 231 229 229 227 226 226 227 228 229 230 228 227 228 229 230 230 231 233 234 236 238 240 243 247 250 252 256 259 262 264 267 269 272 274 277 279 283 286
235 234 232 230 229 228 228 229 230 231 229 229 229 229 230 230 230 230 230 230 231 231 233 233 235 236 239 242 245 247 251 254 257 259 262 265 267 269 271 274 277 280 283 286
233 231 231 231 230 230 231 230 231 231 231 230 231 231 232 232 231 231 230 231 232 233 233 235 236 237 239 242 245 248 252 254 256 259 262 265 267 269 272 274 278 281 284 286
237 233 233 233 232 233 234 234 233 233 233 231 230 231 232 232 232 232 232 232 232 232 233 234 236 238 241 243 246 249 251 254 257 259 262 264 266 269 272 275 278 281 283 286
241 236 238 236 233 233 233 234 234 234 233 232 231 231 231 233 234 233 233 233 231 231 232 234 237 240 242 245 246 248 251 254 256 259 261 262 265 269 272 275 278 280 283 286
243 238 238 236 233 232 231 231 232 232 231 230 230 230 230 231 233 233 232 233 232 232 234 235 238 240 242 244 246 248 250 253 256 258 260 262 266 269 272 275 279 280 283 287
244 240 237 235 233 231 231 231 231 231 229 228 228 229 229 230 231 233 232 232 233 234 235 237 239 240 241 244 246 249 251 253 255 257 260 263 267 269 273 277 279 281 284 287
243 240 237 234 232 231 231 230 230 230 230 229 229 228 229 230 231 231 231 231 233 234 236 238 240 240 241 244 246 247 249 252 254 256 261 264 267 270 274 278 279 281 284 287
244 241 237 234 232 232 230 228 228 228 229 229 229 229 229 230 230 229 229 230 231 232 234 236 238 239 240 242 244 246 248 252 254 257 261 265 267 270 274 277 279 281 284 288
247 242 237 234 232 231 230 227 226 226 228 228 227 228 229 229 227 226 227 228 229 230 232 234 235 237 239 240 242 245 248 251 254 257 260 264 268 270 273 276 279 281 285 288
246 241 237 233 231 230 229 228 227 225 225 226 226 226 227 227 227 226 226 226 228 229 231 233 235 236 238 240 242 245 247 250 252 256 260 263 267 270 273 276 279 283 286 288
241 238 236 233 230 228 226 226 224 222 221 223 223 222 223 225 226 226 225 226 227 228 231 232 234 236 238 239 242 244 246 249 252 256 260 264 267 270 273 276 280 284 286 289
237 235 234 230 227 226 224 223 220 219 219 219 219 219 220 223 225 226 226 225 226 228 230 231 232 234 237 239 242 244 246 249 253 258 261 264 268 271 275 278 282 285 288 291
235 233 230 227 225 224 223 220 217 217 217 218 219 219 219 222 224 226 227 227 226 226 226 228 230 234 237 240 242 244 247 251 255 259 263 267 270 274 277 279 283 286 288 291
235 231 228 226 224 223 221 219 217 217 218 219 220 219 220 221 223 224 224 224 224 223 224 227 231 235 239 242 244 247 250 254 258 261 265 268 272 275 278 281 284 286 289 291
232 228 225 224 223 221 219 218 216 216 217 218 220 221 221 221 222 223 223 223 224 224 225 229 233 236 239 242 245 249 252 255 259 263 267 270 274 277 279 282 284 287 289 292
232 228 223 223 221 219 217 215 215 214 215 216 218 219 219 219 221 221 222 222 223 225 228 232 235 236 238 242 246 250 254 257 260 264 269 272 275 278 280 283 285 287 290 292
232 225 222 222 220 217 214 214 215 215 215 216 216 216 216 217 218 219 222 223 225 228 229 231 234 236 240 244 248 252 255 258 261 265 270 274 277 279 281 284 286 289 291 293
227 222 220 219 217 215 214 214 215 215 215 215 216 216 216 217 219 220 221 223 225 226 228 230 234 238 241 245 250 253 256 259 263 267 271 275 278 280 283 286 288 290 292 295
229 225 222 219 218 216 214 214 215 214 215 216 216 215 216 218 220 220 222 224 225 227 229 232 236 239 244 249 252 255 258 261 264 268 272 276 279 282 285 287 289 291 293 296
Height
5525 5530 5535 5540 5547 5553 5559 5567 5575 5586 5595 5603 5608 5614 5619 5625 5631 5638 5644 5650 5656 5661 5666 5670 5675 5680 5684 5688 5692 5695 5698 5701 5704 5705 5707 5708 5709 5709 5709 5709 5709 5708 5706 5705
5517 5521 5525 5530 5538 5544 5551 5559 5567 5576 5585 5595 5598 5604 5610 5616 5622 5629 5635 5641 5647 5651 5656 5661 5666 5670 5675 5679 5683 5686 5689 5692 5694 5696 5698 5699 5700 5700 5700 5700 5700 5699 5697 5696
5508 5513 5515 5522 5532 5537 5544 5552 5560 5567 5579 5584 5588 5594 5600 5606 5612 5619 5625 5631 5637 5642 5647 5651 5656 5661 5666 5669 5673 5676 5680 5682 5685 5687 5688 5689 5690 5691 5691 5691 5690 5689 5688 5686
5500 5505 5508 5520 5525 5529 5535 5543 5550 5558 5567 5573 5579 5585 5590 5596 5602 5609 5615 5622 5627 5632 5637 5642 5647 5651 5656 5660 5663 5667 5670 5673 5675 5677 5679 5680 5681 5681 5682 5681 5681 5680 5679 5677
5492 5496 5501 5511 5516 5522 5527 5534 5541 5548 5556 5562 5569 5574 5581 5587 5593 5599 5606 5612 5617 5623 5628 5633 5637 5642 5646 5651 5654 5658 5661 5663 5666 5667 5669 5670 5671 5672 5672 5672 5672 5671 5670 5668
5485 5488 5494 5504 5509 5513 5519 5525 5532 5538 5545 5552 5557 5564 5573 5579 5584 5589 5595 5601 5607 5613 5618 5623 5628 5633 5637 5641 5645 5649 5652 5654 5656 5658 5660 5661 5662 5662 5663 5663 5662 5661 5660 5658
5476 5480 5486 5495 5500 5504 5511 5518 5523 5528 5535 5541 5547 5556 5564 5568 5574 5580 5585 5591 5597 5603 5609 5614 5619 5624 5628 5632 5636 5639 5642 5645 5647 5649 5650 5651 5652 5653 5653 5653 5653 5652 5651 5649
5469 5473 5483 5488 5492 5497 5501 5506 5512 5518 5524 5531 5538 5544 5551 5557 5563 5570 5576 5582 5588 5594 5600 5605 5610 5615 5619 5624 5627 5630 5633 5635 5638 5640 5641 5642 5643 5643 5644 5644 5643 5642 5641 5639
5463 5469 5475 5478 5482 5486 5491 5497 5502 5508 5514 5521 5528 5535 5542 5548 5555 5561 5567 5573 5578 5584 5590 5595 5600 5605 5610 5615 5618 5621 5623 5626 5628 5630 5631 5633 5633 5634 5634 5634 5633 5633 5631 5630
5455 5461 5465 5469 5473 5477 5482 5487 5493 5498 5504 5511 5518 5525 5532 5538 5545 5551 5557 5563 5569 5574 5580 5586 5591 5596 5601 5605 5608 5611 5614 5617 5619 5620 5622 5623 5624 5624 5624 5624 5624 5623 5622 5620
5447 5454 5457 5460 5464 5469 5473 5478 5483 5489 5495 5502 5509 5516 5522 5529 5535 5541 5547 5553 5559 5565 5571 5576 5581 5586 5591 5595 5598 5602 5604 5607 5609 5611 5612 5613 5614 5614 5615 5615 5614 5614 5612 5611
5440 5445 5447 5451 5455 5459 5464 5470 5475 5481 5487 5493 5500 5506 5513 5519 5525 5531 5537 5543 5549 5555 5561 5566 5571 5576 5581 5585 5588 5592 5595 5597 5600 5601 5602 5603 5604 5605 5605 5605 5604 5604 5602 5601
5430 5433 5436 5442 5446 5450 5455 5460 5466 5471 5478 5484 5490 5496 5503 5509 5515 5521 5527 5533 5538 5544 5550 5556 5561 5566 5570 5574 5578 5582 5585 5587 5589 5591 5593 5594 5595 5595 5595 5595 5594 5594 5592 5591
5419 5422 5426 5432 5436 5440 5445 5450 5456 5462 5468 5475 5481 5487 5493 5499 5505 5511 5517 5523 5528 5534 5540 5545 5550 5555 5560 5564 5568 5572 5575 5577 5580 5582 5583 5584 5585 5586 5586 5586 5585 5584 5583 5581
5409 5411 5415 5421 5426 5430 5435 5441 5447 5453 5459 5465 5471 5477 5484 5490 5495 5501 5507 5513 5518 5524 5530 5535 5540 5545 5550 5554 5558 5561 5565 5567 5570 5571 5573 5574 5575 5576 5576 5576 5575 5574 5573 5571
5398 5400 5404 5410 5415 5421 5426 5432 5438 5444 5450 5455 5461 5468 5474 5480 5486 5491 5498 5503 5509 5514 5520 5525 5530 5535 5539 5544 5548 5551 5554 5557 5559 5561 5563 5564 5565 5566 5566 5566 5565 5564 5563 5561
5387 5391 5395 5400 5405 5411 5416 5422 5428 5434 5440 5446 5452 5458 5464 5470 5476 5482 5488 5494 5499 5505 5511 5516 5521 5525 5529 5534 5537 5541 5544 5547 5549 5551 5553 5555 5556 5556 5556 5556 5555 5554 5552 5550
5378 5382 5386 5390 5395 5401 5407 5413 5419 5425 5432 5438 5444 5449 5456 5462 5468 5474 5479 5485 5490 5496 5501 5506 5511 5515 5520 5524 5528 5531 5534 5537 5540 5542 5544 5545 5546 5546 5546 5546 5545 5544 5542 5540
5368 5372 5377 5381 5387 5392 5398 5404 5410 5417 5423 5429 5435 5442 5448 5454 5459 5465 5471 5476 5482 5488 5493 5497 5502 5506 5510 5514 5518 5522 5525 5528 5530 5532 5534 5535 5536 5536 5536 5535 5534 5533 5532 5530
5361 5365 5369 5373 5379 5384 5390 5396 5402 5409 5415 5422 5428 5434 5440 5446 5452 5457 5463 5469 5474 5479 5484 5489 5493 5498 5502 5505 5509 5512 5516 5518 5521 5523 5524 5525 5526 5526 5526 5525 5524 5523 5521 5519
5355 5358 5362 5367 5372 5377 5383 5389 5395 5402 5408 5414 5421 5427 5433 5439 5444 5450 5455 5461 5466 5471 5476 5481 5485 5490 5494 5497 5501 5504 5507 5509 5511 5513 5514 5515 5516 5516 5515 5515 5514 5512 5511 5509
5350 5353 5357 5361 5366 5371 5376 5382 5388 5395 5401 5408 5414 5420 5426 5432 5437 5443 5448 5454 5459 5463 5468 5473 5478 5482 5486 5489 5493 5496 5498 5500 5502 5504 5505 5505 5506 5506 5505 5505 5503 5502 5500 5498
5345 5348 5351 5355 5360 5365 5371 5376 5382 5388 5395 5401 5407 5413 5419 5425 5430 5436 5441 5447 5452 5456 5461 5466 5470 5474 5478 5481 5484 5487 5489 5491 5493 5494 5495 5496 5496 5496 5495 5494 5493 5491 5490 5487
5339 5342 5346 5350 5355 5360 5365 5371 5376 5382 5388 5394 5400 5406 5412 5417 5423 5429 5434 5439 5444 5450 5454 5458 5462 5466 5469 5473 5475 5478 5480 5482 5484 5485 5485 5486 5486 5485 5484 5484 5482 5481 5478 5476
5335 5338 5341 5345 5350 5355 5360 5365 5371 5377 5382 5388 5394 5399 5405 5410 5416 5422 5427 5432 5437 5442 5446 5450 5454 5458 5461 5464 5467 5469 5471 5473 5474 5475 5476 5476 5475 5475 5474 5473 5471 5469 5467 5465
5332 5334 5338 5342 5346 5350 5355 5360 5366 5371 5377 5382 5388 5393 5399 5404 5410 5415 5420 5425 5430 5435 5439 5443 5447 5450 5453 5456 5458 5460 5462 5463 5465 5465 5466 5466 5465 5465 5464 5462 5460 5458 5456 5453
5329 5331 5335 5338 5342 5346 5351 5356 5361 5367 5372 5377 5382 5388 5393 5398 5404 5409 5414 5418 5423 5428 5432 5436 5439 5442 5445 5447 5450 5451 5453 5454 5455 5455 5456 5456 5455 5454 5453 5451 5449 5446 5444 5441